Terug naar catalogus

FENGYUN 1C DEB

ActiefPO
NORAD 31623·DEBRIS·🇨🇳 China

Gelanceerd May 10, 1999 vanaf Taiyuan Satellite Launch Center

Loading…

Volgende Passages (komende 24 uur)

TLE

VersSource: Space-Track

Epoch: Sep 11, 2026, 09:46 UTC

1 31623U 99025CAD 26254.40716792  .00000179  00000-0  16837-3 0  9990
2 31623  97.6327  59.5740 0192967 325.4529  33.4213 13.82819359616889

Volg FENGYUN 1C DEB in realtime met AllMySat

Download on the App Store